Home   Weather   Antsirabe   Past weeks

Flag for Madagascar Past Weather in Antsirabe, Madagascar — Yesterday and Last 2 Weeks

Now
55 °F

Passing clouds.


Feels Like: 55 °F
Forecast: 49 / 75 °F
Wind: 5 mph from East

Location: Antananarivo / Ivato

Current Time: Sep 30, 2016 at 6:16:25 AM

Latest Report: Sep 30, 2016 at 5:30 AM


Visibility: N/A

Pressure: 30.18 "Hg (25.21 "Hg at 1507m altitude)

Humidity: 88%

Dew Point: 52 °F

Location of AntsirabeLocation

Past Weather in Antsirabe — Graph

°F

Antsirabe Temperature Yesterday

Maximum temperature yesterday: 79 °F (at 1:00 PM)
Minimum temperature yesterday: 48 °F (at 5:00 AM)
Average temperature yesterday: 64 °F

High & Low Weather Summary for the Past Weeks

 TemperatureHumidityPressure
High84 °F (Sep 25, 1:30 PM)100% (Sep 20, 6:30 AM)30.36 "Hg (Sep 20, 6:30 AM)
Low46 °F (Sep 15, 5:00 AM)16% (Sep 25, 2:00 PM)30.07 "Hg (Sep 25, 2:00 PM)
Average63 °F66%30.23 "Hg
* Reported Sep 15 5:00 AM — Sep 30 5:00 AM, Antsirabe, Weather by CustomWeather, © 2016

Note: Actual official high and low records may vary slightly from our data, if they occured in-between our weather recording intervals... More about our weather records

Advertising

Antsirabe Weather History for the Previous 24 Hours

Scroll right to see more
 ConditionsComfort  
Time TempWeatherWind HumidityBarometerVisibility
5:00 AM
Fri, Sep 30
57 °FPassing clouds.10 mph94%30.18 "HgN/A
4:30 AM57 °FPassing clouds.No wind88%30.18 "HgN/A
4:00 AM57 °FPassing clouds.No wind94%30.18 "HgN/A
3:30 AM57 °FPassing clouds.No wind94%30.18 "HgN/A
3:00 AM59 °FPassing clouds.No wind88%30.18 "HgN/A
2:30 AM59 °FPassing clouds.No wind88%30.18 "HgN/A
2:00 AM59 °FPassing clouds.No wind88%30.21 "HgN/A
1:30 AM59 °FPassing clouds.No wind88%30.21 "HgN/A
1:00 AM59 °FPassing clouds.No wind88%30.21 "HgN/A
12:30 AM59 °FPassing clouds.No wind88%30.24 "HgN/A
11:30 PM
Thu, Sep 29
57 °FPassing clouds.No wind88%30.24 "HgN/A
11:00 PM59 °FPassing clouds.No wind88%30.27 "HgN/A
10:30 PM59 °FPassing clouds.No wind88%30.27 "HgN/A
10:00 PM59 °FPassing clouds.2 mph88%30.27 "HgN/A
9:30 PM59 °FPassing clouds.8 mph88%30.27 "HgN/A
9:00 PM61 °FPassing clouds.8 mph83%30.27 "HgN/A
8:30 PM61 °FPassing clouds.9 mph88%30.27 "HgN/A
8:00 PM63 °FPassing clouds.13 mph83%30.24 "HgN/A
7:30 PM63 °FPassing clouds.9 mph77%30.24 "HgN/A
7:00 PM64 °FPassing clouds.13 mph78%30.24 "HgN/A
6:30 PM66 °FPassing clouds.13 mph68%30.24 "HgN/A
6:00 PM68 °FPassing clouds.10 mph64%30.21 "HgN/A
5:30 PM70 °FPassing clouds.14 mph57%30.21 "HgN/A
5:00 PM73 °FScattered clouds.10 mph50%30.21 "HgN/A
4:30 PM75 °FScattered clouds.12 mph44%30.21 "HgN/A
4:00 PM77 °FPartly sunny.10 mph42%30.18 "HgN/A
3:30 PM77 °FPartly sunny.8 mph42%30.18 "HgN/A
3:00 PM77 °FPartly sunny.10 mph42%30.18 "HgN/A
2:30 PM77 °FPartly sunny.14 mph42%30.18 "HgN/A
2:00 PM77 °FPartly sunny.13 mph42%30.18 "HgN/A
1:30 PM79 °FPartly sunny.12 mph39%30.21 "HgN/A
1:00 PM79 °FPartly sunny.15 mph39%30.21 "HgN/A
12:30 PM77 °FPartly sunny.13 mph42%30.24 "HgN/A
12:00 PM77 °FPartly sunny.14 mph42%30.24 "HgN/A
11:30 AM77 °FPartly sunny.14 mph39%30.27 "HgN/A
11:00 AM75 °FPartly sunny.14 mph41%30.27 "HgN/A
10:30 AM73 °FPassing clouds.No wind50%30.30 "HgN/A
10:00 AM73 °FPassing clouds.No wind50%30.30 "HgN/A
9:30 AM70 °FPassing clouds.No wind53%30.33 "HgN/A
9:00 AM66 °FSunny.No wind60%30.33 "Hg10 mi
8:30 AM64 °FSunny.No wind64%30.33 "Hg10 mi
8:00 AM61 °FPassing clouds.2 mph72%30.33 "HgN/A
7:30 AM57 °FPassing clouds.No wind82%30.33 "HgN/A
7:00 AM55 °FPassing clouds.No wind88%30.33 "HgN/A
6:30 AM52 °FPassing clouds.No wind100%30.30 "HgN/A
6:00 AM50 °FPassing clouds.No wind94%30.30 "HgN/A
Weather by CustomWeather, © 2016

See weather overviewHow to use our weather pages